Location: Bon Acre
(42.6442°N, 73.5758°W)
Time: 03:22:45
(UTC+00:00)

SL-08 R/B - Pass Details

Date: 16 March 2026
Orbit: 946 x 992 km, 83.0° (Epoch: 13 April)

Event Time Altitude Azimuth Distance (km) Brightness Sun altitude
Exits shadow 02:48:16 31° 290° (WNW) 1,599 5.9 -39.2°
Drops below altitude 10° 02:53:28 10° 349° (NNW) 2,675 7.3 -39.9°
Sets 02:56:17 0° 359° (N) 3,625 8.0 -40.3°
